Simultaneous Nadir Overpasses (SNOs) Predictions

Prediction of SNOs between METOP-A and NOAA-19 Satellite Orbit:

Table of predicted SNOs for the next 14.0 days since TLE Epoch: 3/28/2015
Index Date (METOP-A) Time (METOP-A) Lat,Lon (METOP-A) SZA (METOP-A ) Date (NOAA-19) Time (NOAA-19) Lat,Lon (NOAA-19) SZA (NOAA-19 ) Distance(km) Time Diff (sec)
1 04/04/2015 06:29:56 75.34, 80.62 69.69 04/04/2015 06:28:49 75.33, 77.61 69.75 84.76 67
2 04/04/2015 07:20:49 -74.83,-113.55 110.82 04/04/2015 07:19:43 -74.80,-113.56 110.84 2.58 66
3 04/04/2015 08:11:29 74.80, 53.70 69.14 04/04/2015 08:10:40 74.78, 53.77 69.13 2.58 49
4 04/04/2015 09:02:12 -74.76,-139.09 110.92 04/04/2015 09:01:45 -74.76,-138.96 110.91 3.92 27
5 04/04/2015 09:52:51 74.77, 28.30 69.09 04/04/2015 09:52:43 74.79, 28.23 69.11 2.63 8
6
